Location: ?????
(55.1704°N, 38.6488°E)
Time: 05:56:43
(UTC+00:00)

Daily predictions for brighter satellites

Satellite Brightness Start Highest point End
(mag) Time Altitude Azimuth Time Altitude Azimuth Time Altitude Azimuth
Cosmos 2237 Rocket 4.5 00:13:50 17° ESE 00:14:20 18° E 00:17:57 10° ENE
Cosmos 2369 Rocket 4.1 00:17:55 24° NE 00:17:55 24° NE 00:22:00 10° E
ADEOS Rocket 4.0 00:15:33 10° NNE 00:21:57 50° E 00:21:57 50° E
ADEOS II 4.4 00:17:45 10° NNE 00:19:01 18° NNE 00:19:01 18° NNE
Cosmos 2360 Rocket 4.1 00:29:09 23° NNE 00:29:09 23° NNE 00:31:17 10° NNE
Cosmos 2322 Rocket 4.1 00:34:12 24° NNE 00:34:12 24° NNE 00:36:27 10° NNE
Cosmos 2333 Rocket 4.1 00:35:28 24° NNE 00:35:28 24° NNE 00:37:50 10° NNE
SJ 16-02 4.3 00:38:25 12° E 00:38:25 12° E 00:38:49 10° ESE
USA 234 3.9 00:30:26 10° ESE 00:35:06 50° ESE 00:35:06 50° ESE
CZ-2D R/B 4.3 00:35:37 10° NNE 00:36:47 17° NNE 00:36:47 17° NNE
ACS3 Solar Sail 2.6 00:35:37 10° NNE 00:39:55 45° NE 00:39:55 45° NE
SL-16 R/B 4.1 00:44:51 22° NNE 00:44:51 22° NNE 00:47:06 10° NNE
COSMOS 2455 4.1 00:46:06 34° NNE 00:46:06 34° NNE 00:49:38 10° NE
Resurs 1-4 Rocket 4.3 00:47:59 10° NNE 00:49:16 18° N 00:49:16 18° N
Cosmos 1725 Rocket 4.4 00:52:28 10° N 00:58:45 60° ENE 01:04:59 10° SSE
Cosmos 2219 Rocket 3.5 01:03:00 33° NNE 01:03:00 33° NNE 01:06:12 10° NNE
NOSS 3-1 (C) 3.9 01:03:05 49° ENE 01:03:05 49° ENE 01:07:40 10° NE
Cosmos 1727 Rocket 4.3 01:07:36 58° NNE 01:07:36 58° NNE 01:12:34 10° NNE
Lacrosse 4 Rocket 4.0 01:11:04 15° NE 01:11:04 15° NE 01:12:38 10° ENE
NOSS 3-2 (C) 4.3 01:11:41 42° N 01:12:18 43° N 01:19:28 10° ENE
Lacrosse 5 rocket 4.1 01:16:10 13° E 01:16:10 13° E 01:16:35 10° E
H-2A R/B 3.6 01:14:38 10° NNE 01:16:39 25° NNE 01:16:39 25° NNE
Cosmos 1802 Rocket 4.2 01:13:45 10° N 01:21:19 62° SSE 01:26:26 10° SSE
NOSS 0 Rocket 4.1 01:20:16 60° SSE 01:20:53 64° ESE 01:26:59 10° NE
Cosmos 1000 Rocket 4.4 01:28:39 84° SSW 01:28:52 88° W 01:35:16 10° N
NOSS 3-2 (A) 4.3 01:31:49 42° NNW 01:33:51 54° NNE 01:41:43 10° E
COSMOS 2428 2.7 01:39:07 68° N 01:39:07 68° N 01:44:15 10° NNE
Cosmos 1980 Rocket 4.2 01:38:37 16° N 01:39:05 16° N 01:42:36 10° NNE
Meteor 2-5 Rocket 3.9 01:37:02 41° S 01:39:08 75° E 01:44:55 10° NNE
Cosmos 2322 3.9 01:40:27 59° N 01:40:27 59° N 01:45:20 10° NNE
USA 267 4.2 01:34:25 10° ENE 01:40:32 40° SE 01:44:05 23° SSW
CZ-2C R/B 2.7 01:36:03 10° NNE 01:41:06 68° ESE 01:42:21 50° SSE
Cosmos 1980 3.9 01:40:45 51° S 01:42:02 67° ESE 01:47:41 10° NE
Cosmos 2123 Rocket 3.9 01:39:50 32° S 01:42:54 85° E 01:49:08 10° NNE
Cosmos 2016 Rocket 3.9 01:37:31 10° NNW 01:43:56 80° W 01:50:16 10° S
Cosmos 1939 Rocket 3.9 01:46:58 10° NNE 01:50:40 43° E 01:51:20 39° SE
NOSS 3-1 (A) 3.1 01:50:03 63° S 01:50:43 72° SE 01:56:48 10° NE
Meteor 2-21 4.3 01:50:58 68° W 01:51:04 68° WNW 01:57:07 10° N
Cosmos 2084 4.4 01:52:25 40° NE 01:52:25 40° NE 01:55:57 10° E
Cosmos 1190 Rocket 4.3 01:54:11 54° S 01:54:11 54° S 01:58:17 10° SSE
Cosmos 676 Rocket 3.9 01:54:26 59° NNW 01:55:26 84° ENE 02:00:39 10° SSE
Cosmos 2297 4.0 01:54:05 32° NNW 01:56:38 63° NE 02:02:14 10° SE
CENTAUR R/B 3.2 01:52:52 37° NW 01:56:40 84° NE 02:05:56 10° SE
Cosmos 2237 Rocket 2.2 01:55:42 45° SSW 01:57:31 78° ESE 02:03:11 10° NE
ARGOS 3.0 01:52:06 10° NNE 01:57:34 83° WNW 01:58:54 53° SSW
ADEOS II 3.7 01:57:46 10° N 01:59:50 20° NNW 01:59:50 20° NNW
Cosmos 2369 Rocket 2.4 01:59:43 32° NNW 02:02:24 69° NE 02:08:05 10° SE
USA 238 DEB 4.4 02:03:31 34° NW 02:05:45 43° N 02:12:49 10° ENE
USA 238 4.4 02:03:37 34° NW 02:05:51 43° N 02:12:56 10° ENE
Cosmos 1954 Rocket 3.8 02:07:31 65° WSW 02:07:31 65° WSW 02:12:33 10° SSE
ADEOS Rocket 3.5 02:01:15 10° N 02:07:37 49° WNW 02:08:51 45° W
Cosmos 2056 Rocket 4.5 02:03:44 10° S 02:08:54 49° ESE 02:14:04 10° NE
Cosmos 2360 Rocket 3.6 02:10:54 23° NNW 02:10:54 23° NNW 02:15:13 10° NNE
Meteor 2-16 Rocket 4.3 02:05:47 11° SSW 02:11:37 76° WNW 02:17:48 10° N
SJ 16-02 1.9 02:15:02 41° S 02:15:02 41° S 02:17:59 10° S
Cosmos 2322 Rocket 3.6 02:15:59 22° NNW 02:16:06 22° NNW 02:20:29 10° NNE
IRS-1D 4.3 02:11:27 10° NNE 02:16:17 49° E 02:21:03 10° S
Cosmos 2333 Rocket 3.7 02:17:29 21° NNW 02:17:54 21° NNW 02:22:15 10° NNE
SKYMED 2 3.6 02:13:33 10° SSE 02:17:54 79° ENE 02:21:03 19° NNW
CZ-2D R/B 4.0 02:16:31 10° N 02:18:02 15° NNW 02:18:02 15° NNW
USA 234 3.5 02:14:05 10° SE 02:20:26 51° SW 02:22:27 39° W
NOSS 2-2 (E) 3.9 02:23:27 40° N 02:24:01 44° NNE 02:28:07 10° ESE
ACS3 Solar Sail 2.3 02:18:56 10° N 02:24:02 35° NW 02:24:02 35° NW
SeaSat 1 4.2 02:21:14 10° NNE 02:24:16 18° NNW 02:24:16 18° NNW
COSMO-SKYMED 1 2.7 02:20:50 10° SSE 02:24:55 68° ENE 02:28:38 13° N
USA 59 Rocket 1.0 02:28:26 22° NNE 02:28:26 22° NNE 02:29:55 10° NE
SL-16 R/B 3.9 02:26:41 17° NNW 02:27:40 18° NNW 02:31:29 10° NNE
Cosmos 1371 Rocket 4.5 02:23:02 10° SSW 02:28:16 63° ESE 02:33:34 10° NNE
Cosmos 968 Rocket 3.5 02:25:09 21° NNW 02:28:42 82° ENE 02:33:57 10° SSE
COSMOS 2455 4.0 02:29:14 25° NW 02:30:51 28° NNW 02:36:03 10° NE
Cosmos 1741 Rocket 4.3 02:26:44 16° NNW 02:30:59 69° ENE 02:36:17 10° SE
Resurs 1-4 Rocket 4.1 02:28:58 10° N 02:30:19 14° NNW 02:30:19 14° NNW
Cosmos 371 Rocket 3.4 02:32:58 47° W 02:33:26 49° WSW 02:38:05 10° S
Cosmos 2061 Rocket 4.0 02:29:29 10° NNW 02:35:30 54° W 02:41:30 10° SSW
Cosmos 1891 Rocket 4.5 02:29:38 10° NNW 02:36:04 89° WSW 02:42:19 10° S
CZ-4 R/B 4.2 02:33:27 10° NNE 02:38:19 66° ESE 02:43:04 10° S
Aureole 3 Rocket 3.6 02:35:11 10° NNW 02:39:55 77° W 02:46:35 10° S
Cosmos 2292 Rocket 4.4 02:35:23 13° SSW 02:40:01 56° WNW 02:46:39 10° N
Cosmos 1656 Rocket 4.0 02:38:46 35° WNW 02:40:31 45° WSW 02:45:53 10° S
NOAA 12 4.5 02:35:56 10° NNE 02:41:16 66° ESE 02:46:33 10° S
Cosmos 304 Rocket 4.1 02:41:42 40° W 02:41:59 40° WSW 02:46:26 10° S
Gbstr 26 Del rocket 3.8 02:39:58 35° WSW 02:42:02 62° S 02:48:04 10° ESE
Meteor 1-24 Rocket 4.0 02:41:06 35° W 02:42:25 40° WNW 02:47:33 10° N
Cosmos 2219 Rocket 3.5 02:44:42 22° NW 02:45:40 23° NNW 02:50:07 10° NNE
Cosmos 2233 Rocket 4.3 02:40:28 10° NNW 02:46:22 43° W 02:52:12 10° SSW
Cosmos 1400 Rocket 2.5 02:44:17 18° NNW 02:46:58 86° ENE 02:50:38 10° SSE
Lacrosse 4 Rocket 2.3 02:46:35 21° NNW 02:48:51 42° NE 02:52:38 10° ESE
Cosmos 2151 Rocket 3.6 02:44:54 10° N 02:49:27 82° E 02:53:55 10° SSE
Cosmos 1484 Rocket 4.4 02:46:55 10° NNE 02:50:12 33° E 02:53:26 10° SSE
Lacrosse 5 rocket 0.7 02:49:50 57° W 02:50:20 70° SSW 02:53:39 10° ESE
In-Cosmos 22 Rocket 4.4 02:45:24 10° S 02:51:14 82° ESE 02:57:02 10° NNE
USA 306 3.4 02:50:32 27° SSW 02:51:52 41° SSE 02:55:31 10° E
NOSS 3-1 (C) 3.7 02:50:25 30° WNW 02:52:44 47° NNW 02:59:09 10° NE
NOSS 2-2 (C) 3.3 02:53:25 39° WNW 02:54:43 73° SW 02:59:29 10° SE
Cosmos 1447 Rocket 4.4 02:50:11 10° SSW 02:56:27 75° WNW 03:02:50 10° N
Sich 1 Rocket 4.0 02:51:56 10° N 02:56:29 67° ENE 03:00:58 10° SSE
H-2A R/B 3.6 02:54:57 10° N 02:57:08 17° NW 02:57:08 17° NW
Cosmos 1464 Rocket 4.0 02:52:10 10° N 02:58:23 87° E 03:04:31 10° S
H-2A R/B 3.9 02:55:41 10° N 02:58:58 33° WNW 02:58:58 33° WNW
SL-16 R/B 2.4 02:55:08 10° SSW 03:00:48 74° ESE 03:06:30 10° NE
PAYLOAD A 4.5 02:55:52 10° N 03:00:54 41° WNW 03:05:41 11° SW
SWARM C 4.4 02:58:23 10° S 03:01:42 84° W 03:05:03 10° N
SWARM A 4.2 02:58:30 10° S 03:01:49 84° E 03:05:10 10° N
Cosmos 1624 Rocket 3.9 02:56:55 10° SSW 03:02:06 78° WNW 03:07:18 10° NNE
Cosmos 1420 Rocket 4.1 02:57:42 14° SW 03:02:07 54° NW 03:07:21 10° NNE
Cosmos 332 Rocket 3.7 02:58:13 15° NNW 03:02:15 80° WSW 03:07:01 10° SSE
NOSS 3-2 (C) 4.1 02:59:05 19° NW 03:04:13 67° NNE 03:12:27 10° ESE
SL-08 RB Rocket 4.4 03:00:38 10° N 03:04:40 32° WNW 03:06:14 25° W
Helios 1A Rocket 2.9 03:01:56 10° SSW 03:05:05 36° W 03:05:20 36° W
Cosmos 1378 Rocket 3.5 03:00:51 10° S 03:05:07 86° E 03:09:27 10° NNE
Cosmos 2242 Rocket 3.5 03:02:26 10° SSW 03:06:48 64° WNW 03:11:14 10° N
Okean 1 Rocket 3.1 03:03:11 10° N 03:07:33 81° ENE 03:11:52 10° SSE
NOSS 0 Rocket 4.4 03:04:17 23° W 03:07:41 41° NW 03:13:32 10° NNE
Cosmos 2346 Rocket 4.4 03:03:06 10° SSW 03:09:08 60° WNW 03:15:10 10° N
Cosmos 2034 Rocket 4.2 03:03:23 10° N 03:09:45 76° ENE 03:16:07 10° SSE
Cosmos 1812 3.9 03:14:35 17° SW 03:14:35 17° SW 03:15:31 10° SSW
Meteor 2-1 Rocket 4.4 03:07:20 10° NNW 03:13:18 85° ENE 03:19:08 10° SSE
NOSS 2-1 (E) 4.0 03:16:17 22° NW 03:16:49 23° NNW 03:19:23 10° NE
NOSS 2-2 (D) 3.2 03:14:49 25° NW 03:16:54 81° SW 03:21:35 10° SE
Cosmos 1452 Rocket 4.4 03:12:53 10° S 03:17:57 51° ESE 03:23:01 10° NE
CZ-2C R/B 3.4 03:14:38 10° N 03:18:48 27° WNW 03:21:33 17° W
Cosmos 1850 Rocket 4.1 03:14:12 12° NW 03:18:54 56° WSW 03:23:55 10° S
PKM 4.2 03:19:13 19° WNW 03:22:56 60° SSW 03:25:47 10° SE
COSMOS 2428 3.8 03:21:07 19° WNW 03:23:43 26° NNW 03:28:27 10° NNE
USA 267 3.3 03:17:31 10° ENE 03:24:06 82° SSE 03:30:40 10° WSW
Cosmos 1939 Rocket 3.8 03:21:16 10° N 03:24:27 25° WNW 03:26:12 18° W
NOSS 3-2 (A) 4.0 03:19:10 15° NW 03:25:09 74° SW 03:33:40 10° SE
Cosmos 1980 Rocket 4.0 03:21:04 10° NNW 03:25:18 21° NNE 03:29:29 10° ENE
Cosmos 1980 4.3 03:22:38 16° W 03:26:31 36° NW 03:31:45 10° NNE
USA 229 DEB 3.9 03:20:44 10° SSW 03:26:43 66° SE 03:33:31 10° NE
USA 229 4.0 03:20:57 10° SSW 03:26:55 66° SE 03:33:43 10° NE
IGS 5A 3.9 03:24:02 10° NNE 03:28:02 61° E 03:32:01 10° S
Cosmos 2084 3.4 03:28:09 19° WNW 03:30:56 59° SW 03:34:53 10° SE
Cosmos 1331 Rocket 4.2 03:27:05 10° SSW 03:32:20 78° ESE 03:37:35 10° NNE
Meteor 1-11 4.3 03:29:08 10° SSW 03:35:00 88° WNW 03:40:53 10° NNE
ARGOS 4.4 03:33:10 10° N 03:37:07 21° NW 03:40:21 13° W
Cosmos 1356 Rocket 4.4 03:33:19 10° N 03:37:16 48° ENE 03:41:14 10° SE
Cosmos 2297 4.4 03:36:01 12° NW 03:40:30 32° WSW 03:45:25 10° SSW
CBERS-1 4.2 03:35:52 10° NNE 03:41:01 79° ESE 03:46:09 10° SSW
NOSS 3-1 (A) 3.7 03:37:27 14° W 03:41:53 47° NNW 03:48:21 10° NE
Cosmos 2237 Rocket 3.0 03:37:34 12° W 03:42:08 32° NW 03:47:12 10° NNE
SMAP 4.0 03:37:39 10° NNE 03:42:14 53° E 03:46:48 10° S
Cosmos 1441 Rocket 4.1 03:40:15 10° S 03:43:28 46° E 03:46:42 10° NNE
Okean 2 Rocket 3.5 03:40:48 10° NNW 03:44:54 40° W 03:48:59 10° SSW
Cosmos 2369 Rocket 3.1 03:41:31 11° NW 03:46:02 29° WSW 03:50:51 10° SSW
CENTAUR R/B 3.8 03:40:00 12° NW 03:47:09 42° WSW 03:55:40 10° S
ATLAS 3B R/B 3.1 03:40:37 10° SW 03:48:18 85° SE 03:56:15 10° NE
NOSS 2-1 (D) 4.4 03:49:19 13° NW 03:51:02 19° N 03:53:19 10° NE
Cosmos 2056 Rocket 4.0 03:46:02 10° WSW 03:51:06 40° NW 03:56:10 10° NNE
Cosmos 1943 3.6 03:46:13 10° SSW 03:51:47 70° ESE 03:57:23 10° NE
NOSS 2-1 (C) 4.4 03:52:10 12° NW 03:53:59 19° N 03:56:16 10° NE
IRS-1D 4.1 03:50:53 10° N 03:55:18 33° WNW 03:59:40 10° WSW
Orbus 7S? 2.7 03:51:42 10° WSW 03:55:38 80° NNW 03:58:16 10° ENE
Cosmos 2360 Rocket 4.0 03:53:20 10° NW 03:56:48 16° N 04:00:16 10° NE
USA 238 DEB 4.2 03:50:57 10° NW 03:57:53 60° NNE 04:05:35 10° ESE
USA 238 4.3 03:51:04 10° NW 03:58:00 60° NNE 04:05:41 10° ESE
Cosmos 1315 Rocket 2.9 03:54:26 10° NNW 03:58:18 75° ENE 04:02:09 10° SSE
COSMO-SKYMED 1 3.9 03:57:51 10° SW 04:00:41 18° W 04:03:32 10° NW
Iridium 45 4.3 03:57:52 10° NNW 04:01:00 54° W 04:04:07 10° SSW
Cosmos 2228 3.2 03:57:11 10° N 04:01:27 74° ENE 04:05:41 10° SSE
Cosmos 292 Rocket 4.0 03:57:31 10° NW 04:02:10 50° WSW 04:06:46 10° S
Cosmos 2322 Rocket 4.1 03:58:47 10° NW 04:02:20 16° N 04:05:53 10° NE
NOSS 2-3 (C) 4.4 03:58:44 10° NW 04:03:12 59° NNE 04:09:16 10° ESE
Cosmos 2333 Rocket 4.1 04:00:37 10° NW 04:04:25 18° N 04:08:13 10° NE
Cosmos 1544 Rocket 4.5 04:00:20 10° N 04:04:39 51° ENE 04:08:58 10° SSE
ACS3 Solar Sail 3.5 04:04:23 10° NNW 04:05:39 11° NW 04:06:56 10° NW
Cosmos 1025 Rocket 3.3 04:06:04 10° SW 04:10:16 45° WNW 04:14:29 10° N
NOSS 2-3 (E) 4.3 04:06:08 10° NW 04:10:45 70° NE 04:16:56 10° ESE
Cosmos 1461 3.9 04:07:43 10° NW 04:11:24 34° NNE 04:15:01 10° E
NOSS 2-2 (E) 4.2 04:09:58 10° WNW 04:13:28 39° SW 04:18:03 10° SSE
SL-16 R/B 4.0 04:10:11 10° NNW 04:14:01 18° NNE 04:17:51 10° ENE
MOS 1 Rocket 4.3 04:09:15 10° NNE 04:14:05 57° E 04:19:08 10° S
Cosmos 1674 Rocket 4.3 04:11:12 10° SW 04:15:12 33° WNW 04:19:14 10° N
USA 59 Rocket 1.0 04:14:36 10° NW 04:16:47 18° N 04:19:06 10° NE
COSMOS 2455 4.1 04:13:18 10° NW 04:18:32 29° NNE 04:23:45 10° ENE
Cosmos 1697 Rocket 3.6 04:13:56 10° NNW 04:19:22 46° NE 04:24:46 10° ESE
USA 306 2.7 04:16:48 10° W 04:20:20 74° S 04:24:22 10° E
Tsikada Rocket 4.1 04:16:24 10° SSW 04:22:44 78° WNW 04:29:13 10° N
